Wetterdaten: aktuell Samstag, 19.01.2019 17:45
Datum Zeit Temp. 2m 5cm . Boden Feuchte A. Luftdruck Regen Wind Richtung Richtung Sonnenschein Helligkeit Solar Taupunkt Windchill
19.01.2019 17:45 -6,6 C 8,6 C 76 % 1016,2 hPa 0,0 l/m 0,0 km/h (0 Bft) S-SO 155 0 min 0 lux 0 W/m -10,1 C -6,6 C
19.01.2019 17:40 -6,6 C 8,6 C 76 % 1016,2 hPa 0,0 l/m 0,0 km/h (0 Bft) S-SO 155 0 min 0 lux 0 W/m -10,1 C -6,6 C
19.01.2019 17:35 -6,4 C 8,6 C 76 % 1016,1 hPa 0,0 l/m 0,0 km/h (0 Bft) S-SO 155 0 min 0 lux 0 W/m -9,9 C -6,4 C
19.01.2019 17:30 -6,2 C 8,6 C 76 % 1016,1 hPa 0,0 l/m 0,0 km/h (0 Bft) S-SO 155 0 min 1 lux 0 W/m -9,7 C -6,2 C
19.01.2019 17:25 -5,9 C 8,6 C 76 % 1016,0 hPa 0,0 l/m 0,0 km/h (0 Bft) S-SO 155 0 min 7 lux 0 W/m -9,4 C -5,9 C
19.01.2019 17:20 -5,8 C 8,6 C 75 % 1016,0 hPa 0,0 l/m 0,0 km/h (0 Bft) S-SO 155 0 min 9 lux 0 W/m -9,5 C -5,8 C
19.01.2019 17:15 -5,8 C 8,6 C 75 % 1016,0 hPa 0,0 l/m 0,0 km/h (0 Bft) S-SO 155 0 min 12 lux 0 W/m -9,5 C -5,8 C
19.01.2019 17:10 -5,3 C 8,6 C 75 % 1015,9 hPa 0,0 l/m 0,0 km/h (0 Bft) S-SO 155 0 min 18 lux 0 W/m -9,0 C -5,3 C
19.01.2019 17:05 -5,3 C 8,6 C 74 % 1015,9 hPa 0,0 l/m 0,0 km/h (0 Bft) S-SO 155 0 min 36 lux 0 W/m -9,2 C -5,3 C
19.01.2019 16:59 -5,1 C 8,6 C 74 % 1015,9 hPa 0,0 l/m 0,0 km/h (0 Bft) S-SO 155 0 min 78 lux 0 W/m -9,0 C -5,1 C
19.01.2019 16:55 -5,0 C 8,6 C 74 % 1015,9 hPa 0,0 l/m 0,0 km/h (0 Bft) S-SO 155 0 min 161 lux 0 W/m -8,9 C -5,0 C
19.01.2019 16:50 -4,8 C 8,6 C 73 % 1015,9 hPa 0,0 l/m 0,0 km/h (0 Bft) S-SO 155 0 min 290 lux 0 W/m -8,9 C -4,8 C
19.01.2019 16:45 -4,5 C 8,6 C 72 % 1015,8 hPa 0,0 l/m 0,0 km/h (0 Bft) S-SO 155 0 min 474 lux 0 W/m -8,8 C -4,5 C
19.01.2019 16:40 -4,5 C 8,6 C 72 % 1015,8 hPa 0,0 l/m 0,0 km/h (0 Bft) S-SO 155 0 min 694 lux 0 W/m -8,8 C -4,5 C
19.01.2019 16:35 -4,3 C 8,6 C 72 % 1015,8 hPa 0,0 l/m 0,0 km/h (0 Bft) S-SO 155 0 min 995 lux 0 W/m -8,6 C -4,3 C
19.01.2019 16:30 -4,0 C 8,6 C 72 % 1015,7 hPa 0,0 l/m 0,0 km/h (0 Bft) S-SO 155 0 min 1,31 klux 1 W/m -8,3 C -4,0 C
19.01.2019 16:25 -4,0 C 8,6 C 72 % 1015,7 hPa 0,0 l/m 0,0 km/h (0 Bft) S-SO 155 0 min 1,66 klux 1 W/m -8,3 C -4,0 C
19.01.2019 16:20 -3,8 C 8,6 C 72 % 1015,7 hPa 0,0 l/m 0,0 km/h (0 Bft) S-SO 155 0 min 1,85 klux 2 W/m -8,1 C -3,8 C
19.01.2019 16:15 -3,6 C 8,6 C 71 % 1015,7 hPa 0,0 l/m 0,0 km/h (0 Bft) S-SO 155 0 min 2,10 klux 2 W/m -8,1 C -3,6 C
_ Min-Zeit 06:45 00:04 12:50 15:30 - 00:04 - - - - - 06:45 06:45
Minimum _ -10,0 C 8,6 C 56 % 1015,5 hPa - 0,0 km/h (0 Bft) - - - - - -11,9 C -10,0 C
_ Max-Zeit 14:35 00:04 00:19 03:10 00:04 12:45 - - 10:20 12:30 12:30 14:55 14:35
Maximum _ -1,7 C 8,6 C 86 % 1020,8 hPa 0,0 l/m 0,7 km/h
S-SO (0 Bft)
- - 6 min 37,8 klux 121 W/m -7,6 C -1,7 C
Durchschnitt _ -6,7 C 8,6 C 78 % 1018,4 hPa #0,0 l/m 0,0 km/h (0 Bft) N - #5:41 h 9,2 klux 55 W/m -10,0 C -6,7 C
copyright (c) - www.lichtentanne-wetter.de